Flag for Canada Weather past 2 weeks in Prince Albert, Saskatchewan, Canada

Now
3 °F

Overcast.


Feels Like: -13 °F
Forecast: -16 / -2 °F
Wind: 12 mph from Northeast

Location: Prince Albert

Current Time: Jan 30, 2015 at 10:30:42 PM

Latest Report: Jan 30, 2015 at 10:00 PM


Visibility: 15 mi

Pressure: 30.55 "Hg

Humidity: 66%

Dew point: -6 °F

Location of Prince AlbertLocation

Historic Weather in Prince Albert — Graph

°F

Prince Albert temperature yesterday

Maximum temperature yesterday: 9 °F (at 9:00 PM)
Minimum temperature yesterday: -2 °F (at 5:00 AM)
Average temperature yesterday: 3 °F

Past Weeks' High & Low Weather Summary

 TemperatureHumidityPressure
High46 °F (Jan 22, 4:00 PM)100% (Jan 18, 12:00 AM)30.67 "Hg (Jan 18, 12:00 AM)
Low-2 °F (Jan 29, 5:00 AM)57% (Jan 22, 4:00 PM)29.46 "Hg (Jan 16, 8:00 PM)
Average21 °F85%29.96 "Hg
* Reported Jan 15 8:00 PM — Jan 30 8:00 PM, Prince Albert, Weather by CustomWeather, © 2014

Note: Actual official high and low records may vary slightly from our data, if they occured in-between our weather recording intervals... More about our weather records

Advertising

Prince Albert weather history for previous 24 hours

 ConditionsComfort  
Time TempWeatherWind HumidityBarometerVisibility
8:00 PM
Jan 30
9 °FOvercast.8 mph66%30.52 "Hg15 mi
7:00 PM10 °FOvercast.7 mph61%30.50 "Hg15 mi
6:00 PM10 °FOvercast.10 mph72%30.48 "Hg15 mi
5:00 PM12 °FPartly sunny.8 mph67%30.46 "Hg15 mi
4:00 PM12 °FPartly sunny.10 mph73%30.44 "Hg15 mi
3:00 PM12 °FScattered clouds.12 mph73%30.42 "Hg15 mi
2:45 PM14 °FPartly sunny.12 mph73%30.42 "Hg15 mi
2:00 PM14 °FLight snow. Partly sunny.15 mph79%30.41 "Hg15 mi
1:00 PM16 °FLight snow. Mostly cloudy.7 mph79%30.40 "Hg12 mi
12:00 PM16 °FLight snow. Mostly cloudy.5 mph79%30.39 "Hg12 mi
11:00 AM14 °FLight snow. Mostly cloudy.8 mph85%30.38 "Hg12 mi
10:00 AM14 °FOvercast.6 mph85%30.35 "Hg15 mi
9:00 AM12 °FOvercast.6 mph85%30.33 "Hg15 mi
8:00 AM10 °FOvercast.7 mph92%30.30 "Hg15 mi
7:00 AM7 °FOvercast.No wind92%30.30 "Hg15 mi
6:00 AM5 °FPassing clouds.3 mph92%30.29 "Hg15 mi
5:00 AM9 °FLight snow. Passing clouds.2 mph92%30.27 "Hg15 mi
4:00 AM10 °FLight snow. Passing clouds.2 mph85%30.28 "Hg10 mi
3:00 AM10 °FOvercast.3 mph85%30.29 "Hg15 mi
2:00 AM10 °FMostly cloudy.3 mph85%30.30 "Hg15 mi
1:00 AM10 °FMostly cloudy.5 mph79%30.33 "Hg15 mi
12:00 AM10 °FLight snow. Overcast.2 mph79%30.34 "Hg15 mi
11:00 PM
Jan 29
9 °FLight snow. Overcast.8 mph78%30.36 "Hg15 mi
10:00 PM9 °FLight snow. Overcast.8 mph78%30.38 "Hg15 mi
Weather by CustomWeather, © 2014

See weather overviewHow to use our weather pages